ICEYE-X31 (58288 NORAD) Tracking and Keplerian Element Data

This shows tracking and keplerian element data for the satellite.

Feedback or suggestion? Click here.




ElementValue
Catalog58288
NameICEYE-X31
Epoch Orbit6882
Epoch Day35.20322288
Epoch Year2025
RAAN110.9091
Inclination97.4317
Eccentricity0.0003064
Argument of Perigee287.3287
Mean Anonmoly72.7612
Mean Motion15.17761728
Decay Rate0.00015693
L11 58288U 23174AJ 25035.20322288 .00015693 00000+0 77930-3 0 9992
L22 58288 97.4317 110.9091 0003064 287.3287 72.7612 15.17761728 68829



Live tracking and technical data element details for ICEYE-X31 (NORAD 58288). ICEYE-X31 can be tracked NOW for your location showing map with azimuth and elevation plus other details from your city location.







IsCatalogInMostPopularTable: catalog: 58288, numindb: 45
Update: records affected: 1



GetName: 58288 ICEYE-X31

Hit Count: updated at: Wed, 18 Jun 2025 06:22:51 GMT